• In Hungary
  • List of Countries
  • For 7 days
  • Water Temperature
  • Satellite Maps
  • Weather Map
  • News
  • Weather Widgets
  • user-avatar
    Login

    Hourly Weather Heinsberg

    Today, 24 February, Saturday

    Time Temperature Precipitation Wind Pressure Humidity
    00:00 -4°C° 0 mm 4 mps 762 mmHg 40%
    01:00 -4°C° 0 mm 4 mps 762 mmHg 38%
    02:00 -4°C° 0 mm 4 mps 762 mmHg 36%
    03:00 -4°C° 0 mm 4 mps 762 mmHg 34%
    04:00 -5°C° 0 mm 5 mps 763 mmHg 34%
    05:00 -5°C° 0 mm 5 mps 763 mmHg 33%
    06:00 -6°C° 0 mm 5 mps 763 mmHg 28%
    07:00 -5°C° 0 mm 6 mps 763 mmHg 27%
    08:00 -3°C° 0 mm 6 mps 764 mmHg 26%
    09:00 -2°C° 0 mm 7 mps 764 mmHg 25%
    10:00 -1°C° 0 mm 7 mps 764 mmHg 27%
    11:00 0°C° 0 mm 7 mps 764 mmHg 30%
    12:00 +2°C° 0 mm 7 mps 764 mmHg 32%
    13:00 +2°C° 0 mm 7 mps 764 mmHg 35%
    14:00 +2°C° 0 mm 7 mps 764 mmHg 38%
    15:00 +2°C° 0 mm 7 mps 764 mmHg 42%
    16:00 +1°C° 0 mm 6 mps 764 mmHg 45%
    17:00 -2°C° 0 mm 6 mps 764 mmHg 48%
    18:00 -3°C° 0 mm 6 mps 765 mmHg 51%
    19:00 -3°C° 0 mm 6 mps 765 mmHg 49%
    20:00 -4°C° 0 mm 6 mps 765 mmHg 48%
    21:00 -4°C° 0 mm 6 mps 766 mmHg 46%
    22:00 -5°C° 0 mm 6 mps 766 mmHg 45%
    23:00 -5°C° 0 mm 5 mps 766 mmHg 45%

    Tomorrow, 25 February, Sunday

    Time Temperature Precipitation Wind Pressure Humidity
    00:00 -5°C° 0 mm 5 mps 767 mmHg 44%
    01:00 -6°C° 0 mm 5 mps 767 mmHg 43%
    02:00 -6°C° 0 mm 5 mps 767 mmHg 43%
    03:00 -6°C° 0 mm 5 mps 767 mmHg 42%
    04:00 -6°C° 0 mm 5 mps 767 mmHg 41%
    05:00 -7°C° 0 mm 5 mps 767 mmHg 40%
    06:00 -7°C° 0 mm 5 mps 768 mmHg 39%
    07:00 -6°C° 0 mm 5 mps 768 mmHg 36%
    08:00 -6°C° 0 mm 6 mps 768 mmHg 33%
    09:00 -5°C° 0 mm 6 mps 768 mmHg 30%
    10:00 -4°C° 0 mm 6 mps 768 mmHg 28%
    11:00 -3°C° 0 mm 6 mps 768 mmHg 26%
    12:00 -3°C° 0 mm 6 mps 768 mmHg 24%
    13:00 -3°C° 0 mm 6 mps 767 mmHg 26%
    14:00 -3°C° 0 mm 6 mps 767 mmHg 27%
    15:00 -2°C° 0 mm 6 mps 767 mmHg 28%
    16:00 -3°C° 0 mm 6 mps 767 mmHg 33%
    17:00 -4°C° 0 mm 5 mps 767 mmHg 37%
    18:00 -5°C° 0 mm 5 mps 768 mmHg 41%
    19:00 -5°C° 0 mm 5 mps 768 mmHg 44%
    20:00 -5°C° 0 mm 4 mps 768 mmHg 47%
    21:00 -5°C° 0 mm 4 mps 768 mmHg 50%
    22:00 -5°C° 0 mm 4 mps 768 mmHg 53%
    23:00 -5°C° 0 mm 4 mps 769 mmHg 56%

    Day after tomorrow, 26 February, Monday

    Time Temperature Precipitation Wind Pressure Humidity
    00:00 -5°C° 0 mm 4 mps 769 mmHg 59%
    01:00 -5°C° 0 mm 4 mps 769 mmHg 59%
    02:00 -7°C° 0 mm 4 mps 769 mmHg 60%
    03:00 -7°C° 0 mm 4 mps 769 mmHg 61%
    04:00 -7°C° 0 mm 4 mps 769 mmHg 61%
    05:00 -7°C° 0 mm 4 mps 769 mmHg 61%
    06:00 -7°C° 0 mm 4 mps 769 mmHg 61%
    07:00 -7°C° 0 mm 5 mps 769 mmHg 57%
    08:00 -6°C° 0 mm 6 mps 769 mmHg 53%
    09:00 -6°C° 0 mm 6 mps 769 mmHg 48%
    10:00 -5°C° 0 mm 6 mps 768 mmHg 45%
    11:00 -4°C° 0 mm 6 mps 768 mmHg 42%
    12:00 -4°C° 0 mm 7 mps 768 mmHg 38%
    13:00 -4°C° 0 mm 6 mps 767 mmHg 38%
    14:00 -4°C° 0 mm 6 mps 767 mmHg 37%
    15:00 -4°C° 0 mm 6 mps 766 mmHg 37%
    16:00 -4°C° 0 mm 6 mps 766 mmHg 40%
    17:00 -5°C° 0 mm 5 mps 766 mmHg 43%
    18:00 -5°C° 0 mm 4 mps 766 mmHg 47%
    19:00 -5°C° 0 mm 4 mps 766 mmHg 49%
    20:00 -5°C° 0 mm 4 mps 766 mmHg 52%
    21:00 -5°C° 0 mm 4 mps 766 mmHg 55%
    22:00 -7°C° 0 mm 4 mps 766 mmHg 58%
    23:00 -6°C° 0 mm 3 mps 766 mmHg 61%

    27 February, Tuesday

    Time Temperature Precipitation Wind Pressure Humidity
    00:00 -6°C° 0 mm 3 mps 766 mmHg 65%
    01:00 -6°C° 0 mm 3 mps 765 mmHg 66%
    02:00 -6°C° 0 mm 3 mps 765 mmHg 68%
    03:00 -6°C° 0 mm 3 mps 765 mmHg 69%
    04:00 -7°C° 0 mm 3 mps 764 mmHg 69%
    05:00 -7°C° 0 mm 3 mps 764 mmHg 68%
    06:00 -7°C° 0 mm 3 mps 764 mmHg 68%
    07:00 -7°C° 0 mm 4 mps 764 mmHg 65%
    08:00 -7°C° 0 mm 4 mps 764 mmHg 61%
    09:00 -5°C° 0 mm 4 mps 764 mmHg 58%
    10:00 -4°C° 0 mm 4 mps 763 mmHg 54%
    11:00 -4°C° 0 mm 4 mps 763 mmHg 50%
    12:00 -3°C° 0 mm 4 mps 762 mmHg 46%
    13:00 -3°C° 0.1 mm 4 mps 762 mmHg 45%
    14:00 -3°C° 0.1 mm 4 mps 761 mmHg 44%
    15:00 -3°C° 0.1 mm 4 mps 761 mmHg 43%
    16:00 -2°C° 0 mm 3 mps 761 mmHg 46%
    17:00 -4°C° 0 mm 3 mps 761 mmHg 48%
    18:00 -4°C° 0 mm 2 mps 761 mmHg 51%
    19:00 -4°C° 0 mm 2 mps 761 mmHg 51%
    20:00 -5°C° 0 mm 2 mps 761 mmHg 51%
    21:00 -5°C° 0 mm 2 mps 761 mmHg 51%
    22:00 -5°C° 0 mm 2 mps 761 mmHg 49%
    23:00 -5°C° 0 mm 2 mps 761 mmHg 47%

    28 February, Wednesday

    Time Temperature Precipitation Wind Pressure Humidity
    00:00 -6°C° 0 mm 2 mps 761 mmHg 44%
    01:00 -7°C° 0 mm 3 mps 761 mmHg 43%
    02:00 -7°C° 0 mm 3 mps 761 mmHg 42%
    03:00 -8°C° 0 mm 3 mps 761 mmHg 40%
    04:00 -8°C° 0 mm 3 mps 762 mmHg 41%
    05:00 -9°C° 0 mm 4 mps 762 mmHg 42%
    06:00 -10°C° 0 mm 4 mps 762 mmHg 43%
    07:00 -9°C° 0 mm 4 mps 762 mmHg 41%
    08:00 -10°C° 0 mm 5 mps 762 mmHg 40%
    09:00 -8°C° 0 mm 5 mps 762 mmHg 38%
    10:00 -7°C° 0 mm 5 mps 762 mmHg 36%
    11:00 -8°C° 0 mm 6 mps 761 mmHg 34%
    12:00 -6°C° 0 mm 6 mps 761 mmHg 32%
    13:00 -5°C° 0 mm 6 mps 760 mmHg 32%
    14:00 -5°C° 0 mm 6 mps 760 mmHg 31%
    15:00 -5°C° 0 mm 6 mps 759 mmHg 31%
    16:00 -6°C° 0 mm 6 mps 759 mmHg 33%
    17:00 -6°C° 0 mm 6 mps 759 mmHg 35%
    18:00 -7°C° 0 mm 5 mps 759 mmHg 37%
    19:00 -8°C° 0 mm 6 mps 758 mmHg 38%
    20:00 -8°C° 0 mm 6 mps 758 mmHg 39%
    21:00 -8°C° 0 mm 7 mps 758 mmHg 39%
    22:00 -8°C° 0 mm 7 mps 757 mmHg 40%
    23:00 -8°C° 0 mm 7 mps 757 mmHg 40%

    1 March, Thursday

    Time Temperature Precipitation Wind Pressure Humidity
    00:00 -8°C° 0 mm 7 mps 756 mmHg 41%
    01:00 -8°C° 0 mm 7 mps 756 mmHg 41%
    02:00 -8°C° 0 mm 7 mps 755 mmHg 41%
    03:00 -8°C° 0 mm 7 mps 755 mmHg 41%
    04:00 -8°C° 0 mm 7 mps 754 mmHg 42%
    05:00 -8°C° 0 mm 7 mps 754 mmHg 42%
    06:00 -8°C° 0 mm 7 mps 753 mmHg 43%
    07:00 -8°C° 0 mm 7 mps 753 mmHg 41%
    08:00 -7°C° 0 mm 8 mps 752 mmHg 40%
    09:00 -6°C° 0 mm 8 mps 752 mmHg 39%
    10:00 -6°C° 0 mm 8 mps 752 mmHg 38%
    11:00 -5°C° 0 mm 8 mps 751 mmHg 38%
    12:00 -4°C° 0 mm 8 mps 751 mmHg 38%
    13:00 -3°C° 0 mm 7 mps 751 mmHg 38%
    14:00 -2°C° 0 mm 7 mps 750 mmHg 39%
    15:00 -2°C° 0 mm 7 mps 750 mmHg 40%
    16:00 -2°C° 0 mm 7 mps 750 mmHg 42%
    17:00 -3°C° 0 mm 7 mps 750 mmHg 44%
    18:00 -3°C° 0 mm 7 mps 749 mmHg 46%
    19:00 -3°C° 0 mm 7 mps 749 mmHg 46%
    20:00 -3°C° 0 mm 6 mps 749 mmHg 46%
    21:00 -3°C° 0 mm 6 mps 749 mmHg 46%
    22:00 -4°C° 0 mm 6 mps 748 mmHg 47%
    23:00 -4°C° 0 mm 6 mps 748 mmHg 48%
    Show more